Location: Newark
(48.5156°N, 1.8989°W)
Time: 21:20:12
(UTC+00:00)

Vanguard 1 Rocket - Pass Details

Date: 19 November 2019
Orbit: 650 x 4226 km, 34.3° (Epoch: 10 December)

Event Time Altitude Azimuth Distance (km) Brightness Sun altitude
Exits shadow 06:35:18 - 247° (WSW) 3,076 9.7 -7.7°
Rises 06:35:21 0° 247° (WSW) 3,062 9.7 -7.7°
Reaches altitude 10° 06:38:06 10° 226° (SW) 2,321 9.3 -7.3°
Maximum altitude 06:41:40 18° 183° (S) 2,118 9.5 -6.7°
Drops below altitude 10° 06:46:22 10° 142° (SE) 3,195 11.3 -6.0°
Sets 06:51:09 0° 127° (SE) 4,790 13.1 -5.3°
